User: anonymous   Login
Location: Alfortville
(48.8058°N, 2.4204°E)
Time: 02:09:46
(UTC+00:00)
Language:

NOSS 2 (A) - Orbit

View from above orbital plane
View from above orbital plane
View from above satellite
View from above satellite

Ground track
Ground track

The orbit data is extracted from the following two-line orbital elements,

1 10502U 77112A   16037.98731481 0.00020000  00000-0  31445-3 0    09
2 10502  63.3118  35.8279 0891460 101.1093 258.8907 13.91229583    01
Epoch (UTC): 06 February 2016 23:41:44
Eccentricity: 0.0891460
inclination: 63.3118°
perigee height: 273 km
apogee height: 1575 km
right ascension of ascending node: 35.8279°
argument of perigee: 101.1093°
revolutions per day: 13.91229583
mean anomaly at epoch: 258.8907°
orbit number at epoch: 0

The dashed part of the orbit path shows where the satellite is in the earth's shadow,  

DLR